Stafford, VA

4:13 AM EST on February 10, 2016 (GMT -0500)
Stafford

Weather History for KRMN - September, 2013

Change the Weather History Date:

Wednesday, September 11, 2013

  Actual Average (KNYG) Record (KNYG)
Temperature  
Mean Temperature 80 °F -  
Max Temperature 92 °F 77 °F 89 °F (2013)
Min Temperature 68 °F 60 °F 51 °F (1996)
Cooling Degree Days 15    
Growing Degree Days 30 (Base 50)    
Moisture  
Dew Point 73 °F    
Average Humidity 80    
Maximum Humidity 100    
Minimum Humidity 47    
Precipitation  
Precipitation 0.00 in - - ()
Sea Level Pressure  
Sea Level Pressure 30.14 in    
Wind  
Wind Speed 1 mph (South)    
Max Wind Speed 9 mph    
Max Gust Speed -    
Visibility 8 miles    
Events Fog    
Averages and records for this station are not official NWS values.
T = Trace of Precipitation, MM = Missing Value Source: NWS Daily Summary

Daily Weather History Graph

Daily Weather History Graph

Search for Another Location

Airport or City:

Trip Planner

Search our weather history database for the weather conditions in past years. The results will help you decide how hot, cold, wet, or windy it might be!

Date:

Astronomy

Sep. 11, 2013 Rise Set
Actual Time 6:48 AM EDT 7:23 PM EDT
Civil Twilight 6:21 AM EDT 7:50 PM EDT
Nautical Twilight 5:50 AM EDT 8:21 PM EDT
Astronomical Twilight 5:17 AM EDT 8:54 PM EDT
Moon 1:09 PM EDT (9/11) 11:23 PM EDT (9/11)
Length of Visible Light 13h 29m
Length of Day
12h 35m
Waxing Crescent, 38% of the Moon is Illuminated
Sep 11
Waxing Crescent
Sep 12
First Quarter
Sep 19
Full
Sep 26
Last Quarter
Oct 4
New

Hourly Weather History & Observations

Time (EDT) Temp. Heat Index Dew Point Humidity Pressure Visibility Wind Dir Wind Speed Gust Speed Precip Events Conditions
12:15 AM 73.6 °F - 73.6 °F 100% 30.20 in 5.0 mi Calm Calm - N/A   Clear
12:35 AM 75.4 °F - 75.2 °F 99% 30.19 in 7.0 mi Calm Calm - N/A   Clear
12:55 AM 75.0 °F - 74.7 °F 99% 30.19 in 7.0 mi Calm Calm - N/A   Clear
1:15 AM 74.7 °F - 74.5 °F 99% 30.19 in 7.0 mi Calm Calm - N/A   Clear
1:35 AM 76.8 °F - 74.8 °F 94% 30.19 in 10.0 mi Calm Calm - N/A   Clear
1:55 AM 75.6 °F - 74.5 °F 96% 30.18 in 7.0 mi Calm Calm - N/A   Clear
2:15 AM 75.2 °F - 74.7 °F 98% 30.18 in 7.0 mi Calm Calm - N/A   Clear
2:55 AM 73.0 °F - 73.0 °F 100% 30.17 in 5.0 mi Calm Calm - N/A   Clear
3:15 AM 73.2 °F - 73.2 °F 100% 30.17 in 5.0 mi Calm Calm - N/A   Clear
3:35 AM 72.0 °F - 72.0 °F 100% 30.17 in 2.5 mi Calm Calm - N/A   Clear
3:55 AM 71.8 °F - 71.8 °F 100% 30.17 in 2.5 mi Calm Calm - N/A   Clear
4:15 AM 72.1 °F - 72.1 °F 100% 30.17 in 4.0 mi Calm Calm - N/A   Clear
4:35 AM 71.8 °F - 71.8 °F 100% 30.16 in 4.0 mi Calm Calm - N/A   Clear
4:55 AM 70.2 °F - 70.2 °F 100% 30.17 in 2.5 mi Calm Calm - N/A   Clear
5:15 AM 70.2 °F - 70.2 °F 100% 30.17 in 2.0 mi Calm Calm - N/A   Clear
5:35 AM 70.2 °F - 70.2 °F 100% 30.17 in 0.8 mi Calm Calm - N/A   Mist
5:55 AM 70.0 °F - 70.0 °F 100% 30.17 in 0.5 mi Calm Calm - N/A Fog Fog
6:15 AM 70.3 °F - 70.3 °F 100% 30.18 in 0.2 mi Calm Calm - N/A Fog Fog
6:35 AM 69.1 °F - 69.1 °F 100% 30.18 in 2.5 mi Calm Calm - N/A   Clear
6:55 AM 69.1 °F - 69.1 °F 100% 30.18 in 0.8 mi Calm Calm - N/A   Mist
7:15 AM 68.4 °F - 68.4 °F 100% 30.19 in 1.0 mi Calm Calm - N/A   Mist
7:35 AM 70.0 °F - 70.0 °F 100% 30.19 in 1.8 mi Calm Calm - N/A   Mist
7:55 AM 71.6 °F - 71.6 °F 100% 30.19 in 2.0 mi Calm Calm - N/A   Clear
8:15 AM 73.4 °F - 73.4 °F 100% 30.19 in 4.0 mi Calm Calm - N/A   Clear
8:35 AM 75.2 °F - 74.8 °F 99% 30.20 in 5.0 mi Calm Calm - N/A   Clear
8:55 AM 77.0 °F - 75.6 °F 95% 30.20 in 7.0 mi Calm Calm - N/A   Clear
9:15 AM 78.1 °F - 75.6 °F 92% 30.20 in 7.0 mi SW 3.5 mph - N/A   Clear
9:35 AM 79.2 °F - 75.6 °F 89% 30.20 in 7.0 mi SSW 3.5 mph - N/A   Clear
9:55 AM 80.6 °F 86.6 °F 76.1 °F 86% 30.20 in 7.0 mi Calm Calm - N/A   Clear
10:15 AM 82.2 °F 89.9 °F 76.3 °F 82% 30.20 in 10.0 mi Calm Calm - N/A   Clear
10:35 AM 82.4 °F 89.2 °F 75.0 °F 78% 30.19 in 10.0 mi Calm Calm - N/A   Clear
10:55 AM 84.2 °F 91.9 °F 74.7 °F 73% 30.19 in 10.0 mi Calm Calm - N/A   Clear
11:15 AM 84.9 °F 92.1 °F 73.9 °F 69% 30.19 in 10.0 mi Calm Calm - N/A   Clear
11:35 AM 86.4 °F 94.2 °F 73.8 °F 66% 30.18 in 10.0 mi Calm Calm - N/A   Clear
11:55 AM 87.1 °F 94.9 °F 73.6 °F 64% 30.18 in 10.0 mi Calm Calm - N/A   Clear
12:15 PM 89.2 °F 99.0 °F 74.7 °F 62% 30.17 in 10.0 mi ESE 4.6 mph - N/A   Clear
12:35 PM 89.2 °F 97.9 °F 73.6 °F 60% 30.17 in 10.0 mi South 4.6 mph - N/A   Clear
12:55 PM 89.8 °F 98.1 °F 73.4 °F 58% 30.16 in 10.0 mi ESE 3.5 mph - N/A   Clear
1:15 PM 91.0 °F 99.3 °F 72.7 °F 55% 30.16 in 10.0 mi ESE 3.5 mph - N/A   Clear
1:35 PM 91.0 °F 99.8 °F 73.6 °F 56% 30.15 in 10.0 mi ESE 4.6 mph - N/A   Scattered Clouds
1:55 PM 92.3 °F 99.7 °F 71.6 °F 51% 30.13 in 10.0 mi South 3.5 mph - N/A   Scattered Clouds
2:15 PM 91.9 °F 98.4 °F 70.9 °F 50% 30.13 in 10.0 mi South 4.6 mph - N/A   Clear
2:35 PM 92.3 °F 99.7 °F 71.6 °F 51% 30.12 in 10.0 mi SSW 6.9 mph - N/A   Clear
2:55 PM 91.0 °F 97.6 °F 71.1 °F 52% 30.12 in 10.0 mi South 9.2 mph - N/A   Scattered Clouds
3:15 PM 92.8 °F 98.6 °F 69.6 °F 47% 30.11 in 10.0 mi SSW 6.9 mph - N/A   Scattered Clouds
3:35 PM 92.8 °F 100.3 °F 71.4 °F 50% 30.10 in 10.0 mi South 6.9 mph - N/A   Scattered Clouds
3:55 PM 91.0 °F 97.6 °F 71.1 °F 52% 30.10 in 10.0 mi South 5.8 mph - N/A   Scattered Clouds
4:15 PM 91.9 °F 99.0 °F 71.2 °F 51% 30.09 in 10.0 mi South 5.8 mph - N/A   Scattered Clouds
4:35 PM 91.2 °F 98.0 °F 71.4 °F 52% 30.08 in 10.0 mi South 6.9 mph - N/A   Scattered Clouds
4:55 PM 91.0 °F 98.2 °F 72.0 °F 53% 30.08 in 10.0 mi South 5.8 mph - N/A   Scattered Clouds
5:15 PM 91.0 °F 98.2 °F 72.0 °F 53% 30.08 in 10.0 mi SW 5.8 mph - N/A   Scattered Clouds
5:35 PM 89.2 °F 96.4 °F 72.1 °F 57% 30.08 in 10.0 mi SSW 9.2 mph - N/A   Scattered Clouds
5:55 PM 88.9 °F 96.1 °F 72.5 °F 58% 30.08 in 10.0 mi SSW 8.1 mph - N/A   Clear
6:15 PM 87.8 °F 94.7 °F 72.3 °F 60% 30.08 in 10.0 mi SSW 6.9 mph - N/A   Clear
6:35 PM 86.4 °F 93.0 °F 72.5 °F 63% 30.08 in 10.0 mi SSW 4.6 mph - N/A   Clear
6:55 PM 85.6 °F 91.8 °F 72.3 °F 64% 30.08 in 10.0 mi SSW 4.6 mph - N/A   Clear
7:15 PM 84.2 °F 90.3 °F 72.5 °F 68% 30.08 in 10.0 mi Calm Calm - N/A   Clear
7:35 PM 82.9 °F 88.0 °F 72.0 °F 69% 30.08 in 10.0 mi South 3.5 mph - N/A   Clear
7:55 PM 81.7 °F 87.1 °F 73.4 °F 76% 30.09 in 10.0 mi Calm Calm - N/A   Clear
8:15 PM 80.6 °F 85.2 °F 73.0 °F 78% 30.09 in 10.0 mi Calm Calm - N/A   Clear
8:35 PM 77.2 °F - 76.3 °F 97% 30.10 in 10.0 mi Calm Calm - N/A   Clear
8:55 PM 77.2 °F - 75.7 °F 95% 30.10 in 10.0 mi Calm Calm - N/A   Clear
9:15 PM 80.4 °F 84.8 °F 73.0 °F 78% 30.10 in 10.0 mi Calm Calm - N/A   Clear
9:35 PM 78.6 °F - 74.5 °F 87% 30.09 in 10.0 mi Calm Calm - N/A   Clear
9:55 PM 77.9 °F - 74.5 °F 89% 30.08 in 10.0 mi Calm Calm - N/A   Scattered Clouds
10:15 PM 77.9 °F - 74.7 °F 90% 30.08 in 7.0 mi SSE 3.5 mph - N/A   Scattered Clouds
10:35 PM 77.0 °F - 74.3 °F 91% 30.08 in 10.0 mi Calm Calm - N/A   Scattered Clouds
10:55 PM 77.2 °F - 73.8 °F 89% 30.08 in 10.0 mi Calm Calm - N/A   Scattered Clouds
11:15 PM 77.0 °F - 73.2 °F 88% 30.07 in 10.0 mi Calm Calm - N/A   Clear
11:35 PM 77.0 °F - 72.5 °F 86% 30.07 in 10.0 mi Calm Calm - N/A   Clear
11:55 PM 77.0 °F - 71.8 °F 84% 30.06 in 10.0 mi Calm Calm - N/A   Clear